AIC5EB VOMM-VOMD

Flight info

Callsign AIC5EB
Flight time 0h 47m
Altitude 26000
Route MMV R457 MDI
Aircraft A320/M-SDE3FGHIRWY/LB1

Departure

Time 2026-05-09 10:13
Airport Chennai International Airport (VOMM)

Arrival

Time 2026-05-09 11:00
Airport Madurai Airport (VOMD)
Time Latitude Longitude Altitude Speed Heading
2026-05-09 09:37 12.98436 80.16530 47 ft 0 kts 159°
2026-05-09 10:02 12.98443 80.16527 51 ft 3 kts 159°
2026-05-09 10:02 12.98459 80.16521 55 ft 3 kts 160°
2026-05-09 10:02 12.98478 80.16516 54 ft 3 kts 186°
2026-05-09 10:02 12.98496 80.16522 54 ft 3 kts 226°
2026-05-09 10:03 12.98505 80.16534 55 ft 0 kts 249°
2026-05-09 10:06 12.98505 80.16533 55 ft 0 kts 249°
2026-05-09 10:06 12.98504 80.16529 55 ft 1 kts 249°
2026-05-09 10:07 12.98501 80.16522 49 ft 2 kts 249°
2026-05-09 10:07 12.98496 80.16508 52 ft 2 kts 249°
2026-05-09 10:07 12.98489 80.16490 54 ft 3 kts 249°
2026-05-09 10:07 12.98473 80.16447 55 ft 11 kts 250°
2026-05-09 10:08 12.98435 80.16340 54 ft 20 kts 250°
2026-05-09 10:08 12.98384 80.16197 52 ft 21 kts 250°
2026-05-09 10:08 12.98337 80.16070 52 ft 18 kts 249°
2026-05-09 10:08 12.98295 80.15963 55 ft 14 kts 248°
2026-05-09 10:09 12.98292 80.15879 54 ft 10 kts 299°
2026-05-09 10:09 12.98313 80.15823 55 ft 7 kts 287°
2026-05-09 10:09 12.98330 80.15767 51 ft 10 kts 286°
2026-05-09 10:09 12.98352 80.15686 55 ft 14 kts 285°
2026-05-09 10:10 12.98381 80.15576 56 ft 18 kts 285°
2026-05-09 10:10 12.98388 80.15549 53 ft 0 kts 285°
2026-05-09 10:11 12.98390 80.15543 54 ft 3 kts 285°
2026-05-09 10:11 12.98408 80.15477 54 ft 11 kts 285°
2026-05-09 10:12 12.98431 80.15438 52 ft 9 kts 323°
2026-05-09 10:12 12.98475 80.15454 53 ft 7 kts 66°
2026-05-09 10:12 12.98480 80.15469 56 ft 0 kts 67°
2026-05-09 10:12 12.98502 80.15523 56 ft 34 kts 67°
2026-05-09 10:13 12.98679 80.15991 51 ft 103 kts 69°
2026-05-09 10:13 12.99005 80.16863 54 ft 156 kts 70°
2026-05-09 10:13 12.99416 80.17992 334 ft 175 kts 68°
2026-05-09 10:13 12.99823 80.19158 1045 ft 175 kts 71°
2026-05-09 10:14 13.00250 80.20336 1718 ft 175 kts 69°
2026-05-09 10:14 13.00708 80.21538 2119 ft 190 kts 68°
2026-05-09 10:14 13.01218 80.22860 2329 ft 214 kts 68°
2026-05-09 10:14 13.01800 80.24363 2655 ft 237 kts 68°
2026-05-09 10:15 13.02426 80.25983 3130 ft 254 kts 68°
2026-05-09 10:15 13.03088 80.27701 3888 ft 260 kts 69°
2026-05-09 10:15 13.03536 80.29508 4656 ft 265 kts 91°
2026-05-09 10:15 13.02985 80.31305 5399 ft 272 kts 124°
2026-05-09 10:16 13.01513 80.32507 6147 ft 280 kts 158°
2026-05-09 10:16 12.99579 80.32705 6854 ft 289 kts 190°
2026-05-09 10:16 12.97693 80.31947 7587 ft 293 kts 204°
2026-05-09 10:16 12.95728 80.31423 8276 ft 294 kts 176°
2026-05-09 10:17 12.93724 80.31824 8987 ft 293 kts 158°
2026-05-09 10:17 12.91870 80.32651 9712 ft 295 kts 151°
2026-05-09 10:17 12.90013 80.33639 10149 ft 309 kts 150°
2026-05-09 10:17 12.88023 80.34698 10308 ft 332 kts 151°
2026-05-09 10:18 12.85885 80.35764 10563 ft 349 kts 154°
2026-05-09 10:18 12.83587 80.36586 11083 ft 357 kts 166°
2026-05-09 10:18 12.81122 80.36839 11669 ft 363 kts 180°
2026-05-09 10:18 12.78573 80.36750 12280 ft 366 kts 181°
2026-05-09 10:19 12.76002 80.36661 12886 ft 370 kts 181°
2026-05-09 10:19 12.73410 80.36580 13481 ft 374 kts 181°
2026-05-09 10:19 12.70816 80.36506 14015 ft 377 kts 181°
2026-05-09 10:19 12.68183 80.36435 14546 ft 380 kts 181°
2026-05-09 10:20 12.65526 80.36363 15085 ft 382 kts 181°
2026-05-09 10:20 12.62895 80.36162 15609 ft 385 kts 189°
2026-05-09 10:20 12.60284 80.35477 16136 ft 388 kts 197°
2026-05-09 10:20 12.57704 80.34636 16665 ft 390 kts 197°
2026-05-09 10:21 12.55099 80.33790 17181 ft 392 kts 197°
2026-05-09 10:21 12.52509 80.32952 17689 ft 395 kts 197°
2026-05-09 10:21 12.49878 80.32100 18189 ft 397 kts 197°
2026-05-09 10:21 12.47243 80.31250 18618 ft 400 kts 197°
2026-05-09 10:22 12.44565 80.30388 19056 ft 403 kts 197°
2026-05-09 10:22 12.41874 80.29525 19490 ft 405 kts 197°
2026-05-09 10:22 12.39179 80.28659 19924 ft 408 kts 197°
2026-05-09 10:22 12.36488 80.27793 20358 ft 410 kts 197°
2026-05-09 10:23 12.33751 80.26908 20791 ft 413 kts 197°
2026-05-09 10:23 12.31002 80.26016 21213 ft 415 kts 197°
2026-05-09 10:23 12.28229 80.25120 21626 ft 418 kts 197°
2026-05-09 10:23 12.25477 80.24233 22036 ft 420 kts 197°
2026-05-09 10:24 12.22675 80.23332 22439 ft 422 kts 197°
2026-05-09 10:24 12.19860 80.22428 22828 ft 425 kts 197°
2026-05-09 10:24 12.17051 80.21524 23195 ft 427 kts 197°
2026-05-09 10:24 12.14205 80.20608 23536 ft 429 kts 197°
2026-05-09 10:25 12.11328 80.19679 23840 ft 431 kts 197°
2026-05-09 10:25 12.08495 80.18765 24150 ft 433 kts 197°
2026-05-09 10:25 12.05609 80.17834 24456 ft 434 kts 197°
2026-05-09 10:25 12.02706 80.16900 24761 ft 436 kts 197°
2026-05-09 10:26 11.99807 80.15968 25053 ft 437 kts 197°
2026-05-09 10:26 11.96926 80.15041 25339 ft 439 kts 197°
2026-05-09 10:26 11.94003 80.14099 25627 ft 440 kts 197°
2026-05-09 10:26 11.91068 80.13153 25777 ft 441 kts 198°
2026-05-09 10:27 11.88265 80.11973 25808 ft 441 kts 207°
2026-05-09 10:27 11.85683 80.10295 25810 ft 441 kts 218°
2026-05-09 10:27 11.83416 80.08161 25811 ft 441 kts 228°
2026-05-09 10:27 11.81476 80.05726 25810 ft 441 kts 231°
2026-05-09 10:28 11.79565 80.03259 25808 ft 441 kts 231°
2026-05-09 10:28 11.77673 80.00824 25809 ft 442 kts 231°
2026-05-09 10:28 11.75751 79.98354 25810 ft 441 kts 231°
2026-05-09 10:28 11.73871 79.95939 25811 ft 436 kts 231°
2026-05-09 10:29 11.71975 79.93508 25814 ft 434 kts 231°
2026-05-09 10:29 11.70114 79.91125 25814 ft 434 kts 231°
2026-05-09 10:29 11.68225 79.88705 25812 ft 434 kts 231°
2026-05-09 10:29 11.66339 79.86291 25815 ft 433 kts 231°
2026-05-09 10:30 11.64481 79.83908 25815 ft 433 kts 231°
2026-05-09 10:30 11.62611 79.81507 25817 ft 433 kts 231°
2026-05-09 10:30 11.60727 79.79089 25815 ft 433 kts 231°
2026-05-09 10:30 11.58842 79.76669 25819 ft 433 kts 231°
2026-05-09 10:31 11.56985 79.74287 25819 ft 433 kts 231°
2026-05-09 10:31 11.55098 79.71867 25820 ft 433 kts 230°
2026-05-09 10:31 11.53217 79.69461 25820 ft 433 kts 230°
2026-05-09 10:31 11.51357 79.67088 25820 ft 433 kts 230°
2026-05-09 10:32 11.49469 79.64677 25814 ft 432 kts 230°
2026-05-09 10:32 11.47586 79.62266 25815 ft 432 kts 231°
2026-05-09 10:32 11.45725 79.59879 25812 ft 432 kts 231°
2026-05-09 10:32 11.43870 79.57501 25812 ft 432 kts 230°
2026-05-09 10:33 11.41995 79.55101 25811 ft 432 kts 230°
2026-05-09 10:33 11.40109 79.52691 25811 ft 431 kts 230°
2026-05-09 10:33 11.38265 79.50330 25809 ft 431 kts 230°
2026-05-09 10:33 11.36394 79.47934 25811 ft 431 kts 230°
2026-05-09 10:34 11.34513 79.45531 25813 ft 431 kts 230°
2026-05-09 10:34 11.30773 79.40770 25806 ft 431 kts 230°
2026-05-09 10:34 11.28895 79.38376 25804 ft 431 kts 230°
2026-05-09 10:35 11.27033 79.36004 25801 ft 431 kts 230°
2026-05-09 10:35 11.25151 79.33608 25802 ft 431 kts 230°
2026-05-09 10:35 11.23266 79.31214 25803 ft 431 kts 230°
2026-05-09 10:35 11.21397 79.28846 25800 ft 431 kts 230°
2026-05-09 10:36 11.19503 79.26452 25801 ft 431 kts 230°
2026-05-09 10:36 11.17638 79.24095 25802 ft 431 kts 230°
2026-05-09 10:36 11.15746 79.21701 25801 ft 431 kts 230°
2026-05-09 10:36 11.13858 79.19311 25801 ft 431 kts 230°
2026-05-09 10:37 11.12000 79.16953 25802 ft 431 kts 230°
2026-05-09 10:37 11.10115 79.14562 25800 ft 431 kts 230°
2026-05-09 10:37 11.08250 79.12199 25802 ft 431 kts 230°
2026-05-09 10:37 11.06367 79.09814 25806 ft 431 kts 230°
2026-05-09 10:38 11.04469 79.07413 25807 ft 431 kts 230°
2026-05-09 10:38 11.02610 79.05061 25807 ft 431 kts 230°
2026-05-09 10:38 11.00722 79.02672 25803 ft 431 kts 230°
2026-05-09 10:38 10.98861 79.00322 25806 ft 431 kts 230°
2026-05-09 10:39 10.96969 78.97933 25806 ft 431 kts 230°
2026-05-09 10:39 10.95083 78.95546 25804 ft 431 kts 230°
2026-05-09 10:39 10.93228 78.93198 25797 ft 431 kts 230°
2026-05-09 10:39 10.91343 78.90812 25793 ft 431 kts 230°
2026-05-09 10:40 10.89475 78.88449 25790 ft 430 kts 230°
2026-05-09 10:40 10.87596 78.86075 25784 ft 430 kts 230°
2026-05-09 10:40 10.85708 78.83692 25780 ft 430 kts 230°
2026-05-09 10:40 10.83847 78.81345 25779 ft 430 kts 230°
2026-05-09 10:41 10.81969 78.78977 25775 ft 430 kts 230°
2026-05-09 10:41 10.80077 78.76593 25775 ft 430 kts 230°
2026-05-09 10:41 10.78030 78.74386 25773 ft 429 kts 220°
2026-05-09 10:41 10.75654 78.72603 25774 ft 428 kts 210°
2026-05-09 10:42 10.72984 78.71277 25774 ft 427 kts 200°
2026-05-09 10:42 10.70155 78.70333 25773 ft 426 kts 197°
2026-05-09 10:42 10.67323 78.69413 25772 ft 426 kts 197°
2026-05-09 10:42 10.64514 78.68496 25778 ft 427 kts 198°
2026-05-09 10:43 10.61677 78.67564 25780 ft 426 kts 198°
2026-05-09 10:43 10.58874 78.66639 25782 ft 426 kts 198°
2026-05-09 10:43 10.56045 78.65703 25618 ft 423 kts 198°
2026-05-09 10:43 10.53253 78.64780 25392 ft 419 kts 198°
2026-05-09 10:44 10.50512 78.63878 25172 ft 418 kts 198°
2026-05-09 10:44 10.47750 78.62974 24949 ft 416 kts 198°
2026-05-09 10:44 10.44990 78.62070 24611 ft 412 kts 198°
2026-05-09 10:44 10.42293 78.61187 24085 ft 410 kts 198°
2026-05-09 10:45 10.39570 78.60298 23571 ft 408 kts 198°
2026-05-09 10:46 10.28913 78.56812 21565 ft 397 kts 198°
2026-05-09 10:46 10.26285 78.55951 21091 ft 394 kts 197°
2026-05-09 10:46 10.23671 78.55096 20621 ft 392 kts 197°
2026-05-09 10:46 10.21101 78.54256 20143 ft 390 kts 197°
2026-05-09 10:47 10.18510 78.53409 19660 ft 389 kts 197°
2026-05-09 10:47 10.15935 78.52566 19165 ft 388 kts 197°
2026-05-09 10:47 10.13366 78.51723 18664 ft 387 kts 197°
2026-05-09 10:47 10.10797 78.50879 18162 ft 387 kts 197°
2026-05-09 10:48 10.08262 78.50047 17607 ft 387 kts 197°
2026-05-09 10:48 10.05706 78.49187 17105 ft 385 kts 201°
2026-05-09 10:48 10.03364 78.47858 16592 ft 385 kts 217°
2026-05-09 10:48 10.01511 78.45957 16095 ft 384 kts 234°
2026-05-09 10:49 10.00235 78.43579 15592 ft 382 kts 250°
2026-05-09 10:49 9.99642 78.40950 15087 ft 381 kts 264°
2026-05-09 10:49 9.99344 78.38306 14590 ft 380 kts 264°
2026-05-09 10:49 9.99051 78.35657 14090 ft 380 kts 264°
2026-05-09 10:50 9.98754 78.32996 13581 ft 379 kts 265°
2026-05-09 10:50 9.98458 78.30336 13036 ft 378 kts 265°
2026-05-09 10:50 9.98160 78.27681 12512 ft 376 kts 265°
2026-05-09 10:50 9.97867 78.25073 11998 ft 373 kts 265°
2026-05-09 10:51 9.97571 78.22457 11473 ft 371 kts 265°
2026-05-09 10:51 9.97277 78.19858 10950 ft 369 kts 264°
2026-05-09 10:51 9.96986 78.17297 10426 ft 368 kts 265°
2026-05-09 10:51 9.96693 78.14704 9896 ft 369 kts 265°
2026-05-09 10:52 9.96402 78.12145 9496 ft 361 kts 265°
2026-05-09 10:52 9.96111 78.09630 8803 ft 355 kts 265°
2026-05-09 10:52 9.95826 78.07163 8295 ft 345 kts 265°
2026-05-09 10:52 9.95551 78.04771 7775 ft 336 kts 266°
2026-05-09 10:53 9.95288 78.02475 7318 ft 324 kts 265°
2026-05-09 10:53 9.95035 78.00273 7233 ft 305 kts 265°
2026-05-09 10:53 9.94800 77.98197 7120 ft 292 kts 266°
2026-05-09 10:53 9.94573 77.96182 6998 ft 279 kts 266°
2026-05-09 10:54 9.94359 77.94279 6877 ft 268 kts 266°
2026-05-09 10:54 9.94150 77.92438 6761 ft 257 kts 266°
2026-05-09 10:54 9.93855 77.90707 6655 ft 248 kts 251°
2026-05-09 10:54 9.92882 77.89314 6535 ft 240 kts 218°
2026-05-09 10:55 9.91377 77.88623 6215 ft 241 kts 186°
2026-05-09 10:55 9.89729 77.88676 5909 ft 239 kts 173°
2026-05-09 10:55 9.88064 77.88815 5577 ft 240 kts 174°
2026-05-09 10:55 9.86401 77.88945 5200 ft 242 kts 174°
2026-05-09 10:56 9.84713 77.89074 4820 ft 244 kts 174°
2026-05-09 10:56 9.83087 77.89522 4420 ft 241 kts 142°
2026-05-09 10:56 9.82111 77.90802 4046 ft 231 kts 101°
2026-05-09 10:56 9.81981 77.92386 3714 ft 224 kts 85°
2026-05-09 10:57 9.82103 77.93962 3374 ft 222 kts 81°
2026-05-09 10:57 9.82275 77.95500 3047 ft 221 kts 81°
2026-05-09 10:57 9.82446 77.97048 2693 ft 214 kts 82°
2026-05-09 10:57 9.82592 77.98508 2381 ft 206 kts 83°
2026-05-09 10:58 9.82719 77.99926 2087 ft 196 kts 83°
2026-05-09 10:58 9.82831 78.01248 1819 ft 178 kts 84°
2026-05-09 10:58 9.82928 78.02429 1607 ft 156 kts 85°
2026-05-09 10:58 9.83010 78.03466 1398 ft 142 kts 84°
2026-05-09 10:59 9.83084 78.04450 1172 ft 136 kts 82°
2026-05-09 10:59 9.83151 78.05374 929 ft 130 kts 84°
2026-05-09 10:59 9.83218 78.06313 778 ft 131 kts 82°
2026-05-09 10:59 9.83291 78.07210 717 ft 128 kts 82°
2026-05-09 11:00 9.83382 78.08138 480 ft 131 kts 82°
2026-05-09 11:00 9.83444 78.09020 435 ft 113 kts 85°
2026-05-09 11:00 9.83479 78.09542 444 ft 55 kts 85°
2026-05-09 11:00 9.83502 78.09887 438 ft 44 kts 89°
2026-05-09 11:01 9.83529 78.10061 437 ft 9 kts 30°
2026-05-09 11:01 9.83568 78.10108 438 ft 10 kts 88°
2026-05-09 11:01 9.83532 78.10145 443 ft 8 kts 199°
2026-05-09 11:01 9.83516 78.10101 446 ft 6 kts 265°
2026-05-09 11:02 9.83510 78.10032 446 ft 16 kts 265°
2026-05-09 11:02 9.83499 78.09872 433 ft 29 kts 266°
2026-05-09 11:02 9.83483 78.09639 437 ft 37 kts 266°
2026-05-09 11:02 9.83465 78.09383 434 ft 25 kts 266°
2026-05-09 11:03 9.83451 78.09204 438 ft 26 kts 267°
2026-05-09 11:03 9.83446 78.09073 435 ft 0 kts 276°
2026-05-09 11:03 9.83451 78.09065 437 ft 4 kts 301°
2026-05-09 11:03 9.83496 78.09064 438 ft 10 kts 20°
2026-05-09 11:04 9.83547 78.09079 438 ft 14 kts 14°
2026-05-09 11:04 9.83596 78.09057 437 ft 9 kts 271°
2026-05-09 11:04 9.83594 78.09004 443 ft 14 kts 266°
2026-05-09 11:04 9.83594 78.08936 443 ft 5 kts 303°
2026-05-09 11:05 9.83623 78.08928 439 ft 3 kts 354°
2026-05-09 11:05 9.83641 78.08926 435 ft 2 kts 354°
2026-05-09 11:05 9.83667 78.08924 440 ft 6 kts 357°
2026-05-09 11:05 9.83721 78.08920 443 ft 4 kts 358°
2026-05-09 11:06 9.83742 78.08919 430 ft 2 kts 356°
2026-05-09 11:06 9.83751 78.08918 430 ft 1 kts 356°
2026-05-09 11:06 9.83755 78.08918 432 ft 1 kts 356°
2026-05-09 11:06 9.83757 78.08918 432 ft 0 kts 356°